Estación de Trinidad

Ultimos registro cada 15 minutos 50
Estación Fecha / Hora Temperatura Humedad Lluvia Velocidad Dirección Radiación Presion
50 Trinidad 06-05-2026 12:15 15 88 0,2 0 231 146 1017,1
49 Trinidad 06-05-2026 12:00 15,1 86 0,2 1,3 275 88 1016,8
48 Trinidad 06-05-2026 11:45 15,3 84 0,4 2,2 262 56 1016,5
47 Trinidad 06-05-2026 11:30 15,5 82 0,2 6,7 263 32 1016,3
46 Trinidad 06-05-2026 11:15 15,2 83 0,2 3,1 252 53 1016,2
45 Trinidad 06-05-2026 11:00 15,2 84 0,4 4 285 39 1016,3
44 Trinidad 06-05-2026 10:45 14,6 88 0,4 3,6 256 26 1016,2
43 Trinidad 06-05-2026 10:30 14,2 89 0,6 0 246 72 1016,1
42 Trinidad 06-05-2026 10:15 14,1 89 0,6 0 202 86 1015,8
41 Trinidad 06-05-2026 10:00 13,9 89 0,8 0 276 86 1015,4
40 Trinidad 06-05-2026 09:45 13,9 87 0,8 0 262 32 1015,6
39 Trinidad 06-05-2026 09:30 13,9 86 1 1,3 298 23 1015,8
38 Trinidad 06-05-2026 09:15 13,8 86 1,2 0,9 256 37 1015,4
37 Trinidad 06-05-2026 09:00 13,4 87 1,4 3,1 274 88 1015,1
36 Trinidad 06-05-2026 08:45 13,3 87 1,2 4,9 307 0 1015
35 Trinidad 06-05-2026 08:30 13,6 86 0,6 4 268 9 1014,7
34 Trinidad 06-05-2026 08:15 13,4 86 0,2 2,7 283 47 1014,5
33 Trinidad 06-05-2026 08:00 13,2 87 0,6 1,3 332 26 1014,4
32 Trinidad 06-05-2026 07:45 13,1 87 0,8 1,8 332 5 1014,7
31 Trinidad 06-05-2026 07:30 13,3 86 0,6 1,8 308 0 1014,8
30 Trinidad 06-05-2026 07:15 13,4 84 0,2 0,9 310 0 1014,8
29 Trinidad 06-05-2026 07:00 13,7 82 1 0,4 274 0 1014,7
28 Trinidad 06-05-2026 06:45 13,9 79 0 1,8 314 0 1014,4
27 Trinidad 06-05-2026 06:30 13,7 79 0 1,3 306 0 1014,2
26 Trinidad 06-05-2026 06:15 13,6 79 0 1,8 318 0 1014,5
25 Trinidad 06-05-2026 06:00 13,4 79 0 1,3 334 0 1014,1
24 Trinidad 06-05-2026 05:45 13,2 80 0 3,1 304 0 1014
23 Trinidad 06-05-2026 05:30 13,1 81 0 1,3 360 0 1013,7
22 Trinidad 06-05-2026 05:15 12,9 81 0 1,3 326 0 1013,7
21 Trinidad 06-05-2026 05:00 13,2 81 0 1,8 337 0 1013,9
20 Trinidad 06-05-2026 04:45 13,2 80 0 1,8 33 0 1013,9
19 Trinidad 06-05-2026 04:30 13,3 80 0 3,6 34 0 1014
18 Trinidad 06-05-2026 04:15 13,6 79 0 0,9 24 0 1014
17 Trinidad 06-05-2026 04:00 13,2 80 0 0,9 9 0 1014
16 Trinidad 06-05-2026 03:45 13,7 78 0 0,4 335 0 1014,2
15 Trinidad 06-05-2026 03:30 13,7 78 0 0,9 352 0 1014,4
14 Trinidad 06-05-2026 03:15 13,9 77 0 2,2 29 0 1014,5
13 Trinidad 06-05-2026 03:00 14,1 77 0 1,3 43 0 1014,3
12 Trinidad 06-05-2026 02:45 14 77 0 0,4 356 0 1014,5
11 Trinidad 06-05-2026 02:30 14,3 76 0 0,4 58 0 1014,7
10 Trinidad 06-05-2026 02:15 14,6 75 0 0,4 33 0 1014,5
9 Trinidad 06-05-2026 02:00 15 74 0 0,4 8 0 1014,8
8 Trinidad 06-05-2026 01:45 14,8 75 0 0,9 36 0 1015
7 Trinidad 06-05-2026 01:30 14,9 76 0 0,4 50 0 1015
6 Trinidad 06-05-2026 01:15 14,9 76 0 2,2 13 0 1014,8
5 Trinidad 06-05-2026 01:00 14,9 76 0 0,4 26 0 1014,8
4 Trinidad 06-05-2026 00:45 14,7 76 0 1,3 50 0 1014,8
3 Trinidad 06-05-2026 00:30 14,8 77 0 0 18 0 1014,9
2 Trinidad 06-05-2026 00:15 14,8 77 0 0,4 1 0 1015
1 Trinidad 06-05-2026 00:00 14,7 78 0 0,4 360 0 1015,1